Weather in Gulripsh

Abkhazia     42°55′11″N   41°06′34″E
temp.,
°C
wind,
m/s
gust,
m/s
humid.,
%
clouds,
%
prec.,
mm/h
press.,
hPa
HPBL,
m
10 august, wed
wed1000:00+23ne22720 0.0 100856
03:00+23nne11641 0.0 100738
06:00+22n11642 0.0 100749
09:00+27wnw345711 0.0 1007588
12:00+29w33545 0.0 1006814
15:00+29w445518 0.0 1006675
18:00+26wsw23725 0.0 100580
21:00+23n12842 0.0 1007111
11 august, thu
thu1100:00+23ene228320 0.0 100762
03:00+23ene227671 0.0 100655
06:00+22ne227727 0.6 100882
09:00+27ssw116421 0.7 1008550
12:00+28sw22592 0.0 1007847
15:00+28w33580 0.1 1007637
18:00+26w22790 0.2 1008227
21:00+23ne11880 0.4 101058
12 august, fri
fri1200:00+22ne229018 0.8 101171
03:00+23ene238699 1.2 101083
06:00+23ene228445 1.3 101193
09:00+27sse22705 1.3 1011496
12:00+27ssw327020 0.0 1011776
15:00+27wsw227214 0.1 1011609
18:00+26w22800 0.1 1011254
21:00+23ne22892 1.2 101244
13 august, sat
sat1300:00+22ne22917 0.2 101269
03:00+21ne22882 0.2 101161
06:00+21ne22860 0.0 101162
09:00+26sw11690 0.0 1010388
12:00+28wsw33673 0.0 1009671
15:00+28wnw55670 0.0 1008514
18:00+27wnw45782 0.0 1007244
21:00+24wsw02910 0.0 100889
14 august, sun
sun1400:00+23ne11896 0.0 100854
03:00+22ne218911 0.0 100750
06:00+22nne11820 0.0 100746
09:00+27sw22710 0.0 1007438
12:00+28wsw32670 0.0 1007664
15:00+29w44600 0.0 1006557
18:00+27w34700 0.0 1006170
21:00+24ene22840 0.0 100735